This is the latest recevied weather packets stored in our database for station/object W1BKW. If no packets are shown the sender has not sent any weather packets the latest 10 day(s).
| Time | Temp. | Humidity | Pressure | Rain* | Wind** | Luminosity | Snow |
|---|---|---|---|---|---|---|---|
| 1777445409 | 7.78° C | 69% | 1017.8 hPa | 0 mm | - | 0 W/m² | - |
| 1777444509 | 7.78° C | 67% | 1017.7 hPa | 0 mm | - | 0 W/m² | - |
| 1777443604 | 7.78° C | 65% | 1017.9 hPa | 0 mm | - | 0 W/m² | - |
| 1777442700 | 7.78° C | 64% | 1017.9 hPa | 0 mm | - | 0 W/m² | - |
| 1777441799 | 7.78° C | 66% | 1017.9 hPa | 0 mm | - | 0 W/m² | - |
| 1777440897 | 7.78° C | 61% | 1017.8 hPa | 0 mm | - | 0 W/m² | - |
| 1777439997 | 7.78° C | 63% | 1017.7 hPa | 0 mm | - | 0 W/m² | - |
| 1777439095 | 7.78° C | 68% | 1017.7 hPa | 0 mm | - | 0 W/m² | - |
| 1777438191 | 7.78° C | 63% | 1018.3 hPa | 0 mm | - | 0 W/m² | - |
| 1777437286 | 7.78° C | 60% | 1018.3 hPa | 0 mm | - | 0 W/m² | - |
| 1777436381 | 8.33° C | 58% | 1018.5 hPa | 0 mm | - | 0 W/m² | - |
| 1777435476 | 8.33° C | 57% | 1018.7 hPa | 0 mm | - | 0 W/m² | - |
| 1777434572 | 8.33° C | 52% | 1018.7 hPa | 0 mm | - | 0 W/m² | - |
| 1777433669 | 8.33° C | 55% | 1018.9 hPa | 0 mm | - | 0 W/m² | - |
| 1777432768 | 8.33° C | 55% | 1019.2 hPa | 0 mm | - | 0 W/m² | - |
| 1777431864 | 7.78° C | 62% | 1019.3 hPa | 0 mm | - | 0 W/m² | - |
| 1777430959 | 7.22° C | 54% | 1019.3 hPa | 0 mm | - | 0 W/m² | - |
| 1777430058 | 7.22° C | 52% | 1019.5 hPa | 0 mm | - | 0 W/m² | - |
| 1777429157 | 7.78° C | 49% | 1019.4 hPa | 0 mm | - | 0 W/m² | - |
| 1777428258 | 8.33° C | 47% | 1019.6 hPa | 0 mm | - | 0 W/m² | - |
| 1777427352 | 7.78° C | 41% | 1019.6 hPa | 0 mm | - | 0 W/m² | - |
| 1777426449 | 8.33° C | 39% | 1019.3 hPa | 0 mm | - | 0 W/m² | - |
| 1777425547 | 8.89° C | 42% | 1019.2 hPa | 0 mm | - | 0 W/m² | - |
| 1777424646 | 9.44° C | 42% | 1019.3 hPa | 0 mm | - | 0 W/m² | - |
| 1777423746 | 9.44° C | 33% | 1019.5 hPa | 0 mm | - | 0 W/m² | - |
* Rain latest hour (hover to see other rain measurements)
** Current wind speed in m/s (hover to see current wind gust speed)